DateTime,DeltaTime,Roll,TargetAngle,Position,Power
2022-06-03 10:28:19.313,0,-0.2,-3.74,0,24.9
2022-06-03 10:28:19.427,0.114000588655472,-0.16,-3.77,1,11.31
2022-06-03 10:28:19.543,0.230002775788307,-0.53,-6.89,3,36.16
2022-06-03 10:28:19.657,0.344003364443779,-0.17,-2.41,6,19.05
2022-06-03 10:28:19.771,0.458003953099251,-0.46,-6.33,7,57.43
2022-06-03 10:28:19.886,0.573000311851501,-0.43,-4.78,9,42.75
2022-06-03 10:28:20.002,0.689002498984337,-0.77,-7.63,8,68.84
2022-06-03 10:28:20.116,0.803003087639809,-0.71,-5.69,5,46.69
2022-06-03 10:28:20.226,0.913000479340553,-0.37,-3.26,3,23.38
2022-06-03 10:28:20.341,1.0279968380928,-0.63,-6.8,0,38.93
2022-06-03 10:28:20.456,1.14300325512886,-0.72,-6.36,0,20.65
2022-06-03 10:28:20.571,1.25799961388111,-0.97,-8.03,2,34.07
2022-06-03 10:28:20.685,1.37200020253658,-0.44,-2.67,5,15.79
2022-06-03 10:28:20.800,1.48700661957264,-1.08,-10.07,9,72.66
2022-06-03 10:28:20.914,1.60099714994431,-0.7,-4.25,10,46.54
2022-06-03 10:28:21.029,1.71600356698036,-1.5,-12.4,8,90
2022-06-03 10:28:21.144,1.83099992573261,-0.46,-0.5,6,13.15
2022-06-03 10:28:21.258,1.94500051438808,-0.72,-7.1,2,55.17
2022-06-03 10:28:21.373,2.05999687314034,-0.89,-7.35,0,29.59
2022-06-03 10:28:21.488,2.17500329017639,-1.03,-7.74,0,27.33
2022-06-03 10:28:21.603,2.28999964892864,-0.35,-1.64,2,-0.4
2022-06-03 10:28:21.717,2.40400023758411,-0.66,-7.16,4,45.41
2022-06-03 10:28:21.831,2.51800082623959,-0.32,-3.06,7,23.29
2022-06-03 10:28:21.946,2.63299718499184,-1.11,-10.86,9,80.75
2022-06-03 10:28:22.057,2.74400040507317,0.25,3.54,8,3.88
2022-06-03 10:28:22.172,2.85899676382542,-0.62,-9.42,6,80.52
2022-06-03 10:28:22.286,2.97299735248089,-0.64,-5.77,4,36.06
2022-06-03 10:28:22.401,3.08800376951694,-0.68,-6.02,1,35.75
2022-06-03 10:28:22.516,3.2030001282692,-0.45,-4.02,0,13.97
2022-06-03 10:28:22.631,3.31800654530525,-0.74,-7.35,2,32.64
2022-06-03 10:28:22.745,3.43199707567692,-0.71,-5.79,4,32.47
2022-06-03 10:28:22.859,3.54599766433239,-0.8,-6.66,7,46.97
2022-06-03 10:28:22.974,3.66100408136845,0.27,2.34,9,9.32
2022-06-03 10:28:23.089,3.7760004401207,-0.96,-12.29,8,90
2022-06-03 10:28:23.204,3.89099679887295,-0.31,-1.59,7,20.05
2022-06-03 10:28:23.319,4.006003215909,-0.57,-6.59,4,56.3
2022-06-03 10:28:23.433,4.12000380456448,-0.25,-2.84,1,16.39
2022-06-03 10:28:23.548,4.23500016331673,-0.28,-4.49,0,19.1
2022-06-03 10:28:23.663,4.35000658035278,-0.25,-4.15,1,14.72
2022-06-03 10:28:23.774,4.46099974215031,-0.55,-6.66,3,34.37
2022-06-03 10:28:23.888,4.57500033080578,0.02,-0.75,6,10.91
2022-06-03 10:28:24.002,4.68900091946125,-0.65,-8.64,8,70.88
2022-06-03 10:28:24.117,4.8039972782135,0.16,0.81,10,16.75
2022-06-03 10:28:24.232,4.91900369524956,-0.52,-8.27,8,82.64
2022-06-03 10:28:24.346,5.03300428390503,-0.0499999999999999,-1.45,6,23.3
2022-06-03 10:28:24.461,5.14800064265728,0,-3.13,3,34.17
2022-06-03 10:28:24.576,5.26299700140953,-0.18,-4.76,1,28.53
2022-06-03 10:28:24.690,5.376997590065,-0.39,-5.73,1,25.93
2022-06-03 10:28:24.805,5.49200400710106,-0.16,-2.92,3,13.79
2022-06-03 10:28:24.920,5.60700036585331,-0.07,-3.18,4,29.15
2022-06-03 10:28:25.034,5.72100095450878,0.02,-2.87,8,30.21
2022-06-03 10:28:25.149,5.83599731326103,-0.22,-5.17,9,61.45
2022-06-03 10:28:25.264,5.95100373029709,-0.39,-5.56,8,55.57
2022-06-03 10:28:25.379,6.06600008904934,0.33,1.04,5,15.72
2022-06-03 10:28:25.489,6.17599748075008,-0.02,-4.9,3,41.04
2022-06-03 10:28:25.604,6.29100389778614,-0.29,-5.6,2,31.57
2022-06-03 10:28:25.719,6.40600025653839,-0.38,-5.09,1,26.54
2022-06-03 10:28:25.833,6.52000084519386,0.38,1.41,3,-8.39
2022-06-03 10:28:25.948,6.63499720394611,0,-5.02,4,43.61
2022-06-03 10:28:26.061,6.74800202250481,0.59,1.42,7,6.06
2022-06-03 10:28:26.177,6.86400420963764,-0.39,-9.03,9,80.72
2022-06-03 10:28:26.292,6.97900056838989,0.17,-0.25,9,25.24
2022-06-03 10:28:26.407,7.09399692714214,-0.0599999999999999,-4.57,7,56.63
2022-06-03 10:28:26.522,7.2090033441782,-0.2,-4.67,5,40.6
2022-06-03 10:28:26.636,7.32300393283367,-0.51,-6.58,2,43.67
2022-06-03 10:28:26.751,7.43800029158592,-0.33,-3.75,2,15.73
2022-06-03 10:28:26.865,7.55200088024139,0.22,-0.09,2,5.54
2022-06-03 10:28:26.980,7.66699723899364,-0.27,-6.52,3,42.72
2022-06-03 10:28:27.095,7.7820036560297,0.23,-0.3,7,8.95
2022-06-03 10:28:27.205,7.89200104773045,-0.69,-9.93,8,84.29
2022-06-03 10:28:27.319,8.00600163638592,-0.13,-1.33,9,24.49
2022-06-03 10:28:27.434,8.12099799513817,-0.27,-4.92,7,58.27
2022-06-03 10:28:27.549,8.23600441217422,-0.46,-5.91,5,46.33
2022-06-03 10:28:27.664,8.35100077092648,-0.83,-8.03,2,48.24
2022-06-03 10:28:27.779,8.46599712967873,-0.63,-4.79,0,16.9
2022-06-03 10:28:27.893,8.5799977183342,-0.14,-1.69,1,0.18
2022-06-03 10:28:28.008,8.69500413537025,-0.59,-7.5,3,41.07
2022-06-03 10:28:28.123,8.81000049412251,-0.39,-3.9,6,24.95
2022-06-03 10:28:28.237,8.92400108277798,-1.04,-9.98,8,73.08
2022-06-03 10:28:28.352,9.03899744153023,-0.89,-5.95,9,48.82
2022-06-03 10:28:28.467,9.15400385856628,-0.08,-0.11,8,27.29
2022-06-03 10:28:28.582,9.26900021731853,-0.62,-7.96,5,68.71
2022-06-03 10:28:28.695,9.38200503587723,-0.87,-7.68,3,42.54
2022-06-03 10:28:28.811,9.49799716472626,-0.86,-6.43,1,31.7
2022-06-03 10:28:28.922,9.60900038480759,-0.55,-4.02,1,14.75
2022-06-03 10:28:29.036,9.72300097346306,-0.28,-3.23,2,17.05
2022-06-03 10:28:29.151,9.83799733221531,-0.82,-8.72,5,50.96
2022-06-03 10:28:29.265,9.95199792087078,-0.24,-1.7,7,19.45
2022-06-03 10:28:29.381,10.0680001080036,-1.19,-11.84,9,86.11
2022-06-03 10:28:29.494,10.1810049265623,-0.72,-3.96,8,40.12
2022-06-03 10:28:29.610,10.2969970554113,-0.44,-3.73,6,42.87
2022-06-03 10:28:29.724,10.4109976440668,-0.72,-7.21,3,52.96
2022-06-03 10:28:29.838,10.5249982327223,-1.01,-8.36,3,39.5
2022-06-03 10:28:29.953,10.6400046497583,-1.18,-8.42,0,43.26
2022-06-03 10:28:30.068,10.7550010085106,-0.51,-2.29,2,-1.43
2022-06-03 10:28:30.183,10.8699973672628,-0.41,-4.41,4,31.38
2022-06-03 10:28:30.297,10.9839979559183,-0.84,-8.33,7,56.16
2022-06-03 10:28:30.413,11.1000001430511,-0.37,-2.64,9,32.05
2022-06-03 10:28:30.527,11.2140007317066,-0.99,-9.73,10,81.96
2022-06-03 10:28:30.642,11.3289970904589,-0.52,-3.17,7,41.32
2022-06-03 10:28:30.752,11.4390045404434,-0.13,-2.13,4,29.62
2022-06-03 10:28:30.867,11.5540008991957,-0.29,-5.06,2,35.37
2022-06-03 10:28:30.981,11.6680014878511,-0.53,-6.33,1,32.66
2022-06-03 10:28:31.096,11.7829978466034,-0.88,-8.1,0,38.26
2022-06-03 10:28:31.211,11.8980042636395,-0.39,-2.63,3,5.68
2022-06-03 10:28:31.325,12.0120048522949,0.02,-1.47,6,23.63
2022-06-03 10:28:31.440,12.1270012110472,-0.64,-8.55,9,72.04
2022-06-03 10:28:31.555,12.2419975697994,-0.12,-1.54,10,33.64
2022-06-03 10:28:31.669,12.3559981584549,-0.6,-7.66,8,75.48
2022-06-03 10:28:31.784,12.471004575491,-0.46,-4.37,5,38.75
2022-06-03 10:28:31.899,12.5860009342432,-0.08,-2,2,19.91
2022-06-03 10:28:32.013,12.7000015228987,-0.18,-4.43,1,24.78
2022-06-03 10:28:32.128,12.8149978816509,-0.26,-4.63,1,22.11
2022-06-03 10:28:32.242,12.9289984703064,-0.64,-7.33,2,37.18
2022-06-03 10:28:32.357,13.0440048873425,-0.59,-5.28,5,29.15
2022-06-03 10:28:32.468,13.15499804914,0.18,0.7,7,16.25
2022-06-03 10:28:32.582,13.2689986377954,-0.73,-10,8,84.1
2022-06-03 10:28:32.697,13.3840050548315,-0.64,-5.29,8,44.19
2022-06-03 10:28:32.813,13.4999971836805,-0.9,-7.83,7,63.01
2022-06-03 10:28:32.926,13.6130020022392,-0.91,-6.69,3,47.73
2022-06-03 10:28:33.041,13.7279983609915,-0.57,-3.99,1,17
2022-06-03 10:28:33.156,13.8430047780275,-0.56,-5.31,1,23.05
2022-06-03 10:28:33.271,13.9580011367798,-0.49,-4.88,1,22.35
2022-06-03 10:28:33.385,14.0720017254353,-0.66,-6.47,4,31.43
2022-06-03 10:28:33.500,14.1869980841875,-0.79,-6.8,7,46.68
2022-06-03 10:28:33.615,14.3020045012236,0.26,2.19,9,9.92
2022-06-03 10:28:33.729,14.416005089879,-0.17,-5.84,10,68.37
2022-06-03 10:28:33.844,14.5310014486313,-0.37,-5.55,7,58.31
2022-06-03 10:28:33.959,14.6459978073835,-0.4,-4.98,5,39.53
2022-06-03 10:28:34.074,14.7610042244196,-0.31,-4.05,2,30.67
2022-06-03 10:28:34.189,14.8760005831718,-0.11,-2.91,1,14.61
2022-06-03 10:28:34.299,14.9859979748726,-0.14,-3.98,1,20.85
2022-06-03 10:28:34.413,15.0999985635281,-0.25,-4.74,3,25.01
2022-06-03 10:28:34.528,15.2150049805641,-0.39,-5.4,6,37.85
2022-06-03 10:28:34.642,15.3290055692196,-1.06,-10.21,8,74.18
2022-06-03 10:28:34.757,15.4440019279718,-0.3,-1.09,9,24.24
2022-06-03 10:28:34.873,15.5600041151047,-0.38,-5.1,8,59.43
2022-06-03 10:28:34.987,15.6740047037601,-0.73,-7.57,6,59.4
2022-06-03 10:28:35.102,15.7890010625124,-0.86,-7.1,4,45.12
2022-06-03 10:28:35.217,15.9039974212646,-0.89,-6.73,0,36.51
2022-06-03 10:28:35.331,16.0179980099201,-0.59,-4.17,0,7.76
2022-06-03 10:28:35.446,16.1330044269562,-0.64,-5.93,0,25.56
2022-06-03 10:28:35.560,16.2470050156116,-0.86,-7.47,6,31.52
2022-06-03 10:28:35.675,16.3620013743639,-0.76,-5.69,7,51.28
2022-06-03 10:28:35.789,16.4760019630194,-1.44,-11.61,9,77.78
2022-06-03 10:28:35.904,16.5909983217716,-0.54,-1.39,8,27.58
2022-06-03 10:28:36.015,16.702001541853,-0.85,-7.84,7,66.56
2022-06-03 10:28:36.129,16.8160021305084,-0.98,-7.5,4,51.77
2022-06-03 10:28:36.245,16.9320043176413,-1.27,-9.28,1,47.41
2022-06-03 10:28:36.359,17.0460049062967,-1.2,-7.49,0,25.07
2022-06-03 10:28:36.474,17.161001265049,-0.58,-2.79,1,3.61
2022-06-03 10:28:36.588,17.2750018537045,-0.88,-7.87,3,41.77
2022-06-03 10:28:36.703,17.3899982124567,-0.53,-3.76,7,24.01
2022-06-03 10:28:36.818,17.5050046294928,-0.82,-7.63,9,66.82
2022-06-03 10:28:36.933,17.620000988245,-0.96,-7.52,9,63.46
2022-06-03 10:28:37.047,17.7340015769005,0.05,1.27,7,17
2022-06-03 10:28:37.162,17.8489979356527,-0.5,-7.59,5,63.57
2022-06-03 10:28:37.276,17.9629985243082,-0.63,-6.19,2,36.86
2022-06-03 10:28:37.391,18.0780049413443,-0.85,-7.47,1,33.7
2022-06-03 10:28:37.506,18.1930013000965,-0.61,-4.5,0,16.98
2022-06-03 10:28:37.621,18.3079976588488,-0.16,-1.99,2,5.11
2022-06-03 10:28:37.731,18.4180051088333,-0.64,-7.79,6,48.98
2022-06-03 10:28:37.846,18.5330014675856,-0.12,-1.46,8,24.49
2022-06-03 10:28:37.961,18.6479978263378,-1.08,-11.54,8,88.63
2022-06-03 10:28:38.075,18.7619984149933,-0.22,-0.37,9,16.24
2022-06-03 10:28:38.189,18.8759990036488,-0.22,-4.14,6,55.52
2022-06-03 10:28:38.304,18.9910054206848,-0.45,-6.03,2,42.96
2022-06-03 10:28:38.419,19.1060017794371,-0.74,-7.36,1,32.16
2022-06-03 10:28:38.534,19.2209981381893,-0.76,-6.18,1,25.6
2022-06-03 10:28:38.649,19.3360045552254,-0.07,-0.63,1,1.34
2022-06-03 10:28:38.763,19.4500051438808,-0.58,-7.68,5,44.04
2022-06-03 10:28:38.878,19.5650015026331,0.19,0.72,8,13.58
2022-06-03 10:28:38.992,19.6790020912886,-0.59,-8.9,9,82.89
2022-06-03 10:28:39.107,19.7939984500408,-0.32,-3.37,8,39.74
2022-06-03 10:28:39.222,19.9090048670769,0.26,0.16,6,24.11
2022-06-03 10:28:39.337,20.0240012258291,-0.08,-5.13,4,47.24
2022-06-03 10:28:39.447,20.1339986175299,-0.35,-5.76,4,34.23
2022-06-03 10:28:39.562,20.2490050345659,-0.5,-5.83,1,37.28
2022-06-03 10:28:39.676,20.3630056232214,0.18,0.27,1,-7.46
2022-06-03 10:28:39.791,20.4780019819736,-0.15,-5.35,4,32.66
2022-06-03 10:28:39.906,20.5929983407259,0.41,0.66,7,10.84
2022-06-03 10:28:40.020,20.7069989293814,-0.09,-5.89,9,62.83
2022-06-03 10:28:40.135,20.8220053464174,-0.01,-2.96,10,42.94
2022-06-03 10:28:40.250,20.9370017051697,0.63,1.75,7,26.69
2022-06-03 10:28:40.364,21.0510022938251,0.12,-5.09,4,51.52
2022-06-03 10:28:40.479,21.1659986525774,-0.01,-3.97,2,24.03
2022-06-03 10:28:40.594,21.2810050696135,-0.11,-4.17,1,21.14
2022-06-03 10:28:40.709,21.3960014283657,0.43,0.64,1,-4.99
2022-06-03 10:28:40.823,21.5100020170212,0.11,-4.29,4,27.32
2022-06-03 10:28:40.938,21.6249983757734,0.35,-0.97,7,19.75
2022-06-03 10:28:41.053,21.7400047928095,-0.26,-7.01,8,65.82
2022-06-03 10:28:41.163,21.8500021845102,-0.0599999999999999,-2.63,9,34.84
2022-06-03 10:28:41.278,21.9649985432625,0.37,-0.13,7,32.7
2022-06-03 10:28:41.392,22.078999131918,-0.12,-5.9,7,54.35
2022-06-03 10:28:41.507,22.194005548954,-0.3,-5.2,3,44.1
2022-06-03 10:28:41.622,22.3090019077063,-0.25,-4.03,1,20.31
2022-06-03 10:28:41.737,22.4239982664585,0.14,-1.1,1,3.05
2022-06-03 10:28:41.851,22.537998855114,-0.23,-5.77,2,33.08
2022-06-03 10:28:41.966,22.65300527215,-0.0399999999999999,-2.7,6,17.2
2022-06-03 10:28:42.081,22.7680016309023,-0.76,-9.26,8,73.21
2022-06-03 10:28:42.195,22.8820022195578,-0.2,-1.66,9,28.32
2022-06-03 10:28:42.310,22.99699857831,-0.19,-3.98,9,53.14
2022-06-03 10:28:42.425,23.1120049953461,-0.46,-6.22,6,59.1
2022-06-03 10:28:42.539,23.2260055840015,-0.65,-6.53,4,42.74
2022-06-03 10:28:42.654,23.3410019427538,-0.49,-4.47,1,27.08
2022-06-03 10:28:42.769,23.455998301506,-0.18,-2.67,0,9.17
2022-06-03 10:28:42.879,23.5660057514906,-0.58,-7.19,2,33.44
2022-06-03 10:28:42.994,23.6810021102428,-0.45,-4.44,5,25.71
2022-06-03 10:28:43.109,23.7959984689951,-0.94,-8.91,7,64.64
2022-06-03 10:28:43.223,23.9099990576506,0,0.72,9,13.16
2022-06-03 10:28:43.338,24.0250054746866,-0.35,-6.16,8,68.17
2022-06-03 10:28:43.452,24.1390060633421,-0.36,-4.66,7,43.46
2022-06-03 10:28:43.567,24.2540024220943,-0.53,-6.06,4,49.91
2022-06-03 10:28:43.682,24.3689987808466,-0.38,-4.09,1,23.36
2022-06-03 10:28:43.797,24.4840051978827,-0.15,-2.9,2,9.61
2022-06-03 10:28:43.912,24.5990015566349,-0.51,-6.76,2,39.83
2022-06-03 10:28:44.026,24.7130021452904,-0.25,-3.1,4,15.94
2022-06-03 10:28:44.141,24.8279985040426,-0.51,-6.37,6,47.53
2022-06-03 10:28:44.255,24.9419990926981,0.49,2.88,8,1.99
2022-06-03 10:28:44.370,25.0570055097342,-0.17,-6.89,10,70.72
2022-06-03 10:28:44.485,25.1720018684864,0,-2.59,8,43.44
2022-06-03 10:28:44.595,25.2819992601871,-0.27,-5.5,5,52.18
2022-06-03 10:28:44.710,25.3970056772232,-0.11,-3.08,0,22.7
2022-06-03 10:28:44.825,25.5120020359755,0.04,-2.5,0,2.68
2022-06-03 10:28:44.939,25.6260026246309,-0.25,-5.55,1,25.45
2022-06-03 10:28:45.054,25.7409989833832,0,-2.2,3,10.19
2022-06-03 10:28:45.169,25.8560054004192,-0.36,-6.28,6,44.02
2022-06-03 10:28:45.283,25.9700059890747,0.57,2.87,8,6.12
2022-06-03 10:28:45.398,26.085002347827,-0.27,-8.02,10,78.96
2022-06-03 10:28:45.513,26.1999987065792,0.01,-2.03,10,39.17
2022-06-03 10:28:45.627,26.3139992952347,-0.34,-6.11,6,65.92
2022-06-03 10:28:45.742,26.4290057122707,-0.18,-3.31,3,25.45
2022-06-03 10:28:45.857,26.544002071023,0.13,-1.52,0,11.23
2022-06-03 10:28:45.971,26.6580026596785,-0.24,-5.79,0,24.29
2022-06-03 10:28:46.086,26.7729990184307,-0.03,-2.53,1,6.88
2022-06-03 10:28:46.201,26.8880054354668,-0.47,-7.03,4,38.86
2022-06-03 10:28:46.311,26.9980028271675,0.27,0.91,7,7.7
2022-06-03 10:28:46.426,27.1129991859198,-0.51,-8.59,9,77
2022-06-03 10:28:46.541,27.2280056029558,-0.27,-3.28,11,40.98
2022-06-03 10:28:46.655,27.3420061916113,-0.53,-6.46,8,72.38
2022-06-03 10:28:46.771,27.4579983204603,-0.54,-5.39,4,44.07
2022-06-03 10:28:46.885,27.5719989091158,-0.16,-2.27,1,15.03
2022-06-03 10:28:46.999,27.6859994977713,-0.37,-5.62,0,26.72
2022-06-03 10:28:47.114,27.8010059148073,-0.39,-4.88,0,18.15
2022-06-03 10:28:47.229,27.9160022735596,-0.82,-8.24,2,37.69
2022-06-03 10:28:47.344,28.0309986323118,-0.36,-2.64,6,15.99
2022-06-03 10:28:47.458,28.1449992209673,-0.84,-8.55,8,70.75
2022-06-03 10:28:47.573,28.2600056380033,-0.64,-4.85,9,45.23
2022-06-03 10:28:47.687,28.3740062266588,-0.97,-8.32,12,69.79
2022-06-03 10:28:47.803,28.4899983555079,-1.1,-7.95,7,77.1
2022-06-03 10:28:47.917,28.6039989441633,-0.52,-2.73,3,22.53
2022-06-03 10:28:48.032,28.7190053611994,-0.7,-6.69,1,36.6
2022-06-03 10:28:48.142,28.8290027529001,-0.76,-6.45,1,26.36
2022-06-03 10:28:48.257,28.9439991116524,-1.18,-9.52,2,45.33
2022-06-03 10:28:48.372,29.0590055286884,-0.8,-4.65,5,19.47
2022-06-03 10:28:48.486,29.1730061173439,-0.83,-6.52,7,49.51
2022-06-03 10:28:48.601,29.2880024760962,-1.15,-9,9,64.95
2022-06-03 10:28:48.715,29.4020030647516,-0.92,-5.69,9,52.48
2022-06-03 10:28:48.830,29.5169994235039,-1.35,-10.23,7,76.95
2022-06-03 10:28:48.945,29.6320058405399,-0.61,-2.38,4,21.7
2022-06-03 10:28:49.059,29.7460064291954,-0.69,-6.21,2,39.64
2022-06-03 10:28:49.174,29.8610027879477,-0.8,-6.8,1,32.43
2022-06-03 10:28:49.289,29.9759991466999,-1.05,-8.29,1,37.56
2022-06-03 10:28:49.404,30.091005563736,-0.93,-6.29,3,27.71
2022-06-03 10:28:49.519,30.2060019224882,-0.39,-2.36,6,21.35
2022-06-03 10:28:49.633,30.3200025111437,-1.06,-10.17,7,78.49
2022-06-03 10:28:49.748,30.4349988698959,-0.35,-1.57,8,21.65
